DW9727 Weather Reports


time (UTC)temp
F
wind
direction
speed
knots
gust
knots
rain 1hr
in
rain 24hr
in
rain mn
in
humidity
%
barometer
mb
20260507060710 49 217 7.8 11.3 0.00 0.00 0.00 62 1014.3
20260507055710 48 212 6.1 11.3 0.00 0.00 0.00 63 1014.5
20260507054710 47 218 5.2 10.4 0.00 0.00 0.00 65 1014.5
20260507053711 46 219 2.6 6.1 0.00 0.00 0.00 64 1014.7
20260507052711 46 215 3.5 6.1 0.00 0.00 0.00 61 1014.8
20260507051711 46 217 1.7 2.6 0.00 0.00 0.00 57 1014.8
20260507044710 48 211 4.3 6.1 0.00 0.00 0.00 51 1014.9
20260507043711 49 217 2.6 5.2 0.00 0.00 0.00 48 1015.1
20260507042711 49 215 3.5 4.3 0.00 0.00 0.00 46 1015.2
20260507041710 50 194 0.9 2.6 0.00 0.00 0.00 45 1015.1
20260507035711 51 195 1.7 4.3 0.00 0.00 0.00 43 1015.2
20260507034711 51 211 1.7 2.6 0.00 0.00 0.00 43 1015.3
20260507033710 51 203 1.7 2.6 0.00 0.00 0.00 42 1015.3
20260507032710 50 201 1.7 2.6 0.00 0.00 0.00 42 1015.4
20260507030711 50 182 0.9 2.6 0.00 0.00 0.00 42 1015.5
20260507025711 51 194 0.9 1.7 0.00 0.00 0.00 41 1015.4
20260507024711 51 217 0.0 1.7 0.00 0.00 0.00 40 1015.4
20260507023711 52 217 0.9 2.6 0.00 0.00 0.00 39 1015.5
20260507021710 53 217 0.9 1.7 0.00 0.00 0.00 36 1015.3
20260507020711 53 211 0.9 2.6 0.00 0.00 0.00 36 1015.3
20260507015710 54 211 1.7 2.6 0.00 0.00 0.00 35 1015.2
20260507014710 54 214 1.7 2.6 0.00 0.00 0.00 35 1015.2
20260507013711 55 252 0.0 1.7 0.00 0.00 0.00 33 1015.2
20260507012711 57 252 0.9 2.6 0.00 0.00 0.00 32 1015.2
20260507011711 58 232 2.6 4.3 0.00 0.00 0.00 31 1015.2
20260507010710 58 265 0.9 5.2 0.00 0.00 0.00 30 1015.2
20260507005710 58 259 1.7 6.1 0.00 0.00 0.00 29 1015.2
20260507004710 59 259 4.3 8.7 0.00 0.00 0.00 27 1015.2
20260507003710 59 249 5.2 8.7 0.00 0.00 0.00 29 1015.3
20260507002710 59 250 4.3 11.3 0.00 0.00 0.00 28 1015.2
20260507001710 60 252 7.8 10.4 0.00 0.00 0.00 26 1015.3
20260507000710 60 256 5.2 10.4 0.00 0.00 0.00 28 1015.3
20260506235710 59 292 4.3 10.4 0.00 0.00 0.00 30 1015.4
20260506234711 59 278 8.7 13.9 0.00 0.00 0.00 30 1015.5
20260506233710 60 284 2.6 10.4 0.00 0.00 0.00 26 1015.7
20260506232711 60 322 4.3 10.4 0.00 0.00 0.00 30 1015.8
20260506230710 62 289 6.1 13.0 0.00 0.00 0.00 28 1015.9
20260506225710 62 313 6.1 13.0 0.00 0.00 0.00 32 1015.8
20260506224710 60 5 6.1 10.4 0.00 0.00 0.00 28 1016.1
20260506223711 61 232 5.2 13.9 0.00 0.00 0.00 27 1016.0
20260506221710 59 263 4.3 10.4 0.00 0.00 0.00 29 1016.1
20260506220710 61 319 7.8 13.0 0.00 0.00 0.00 27 1016.3
20260506215710 62 12 6.1 15.6 0.00 0.00 0.00 30 1016.3
20260506214710 62 266 7.8 13.0 0.00 0.00 0.00 30 1016.4
20260506213710 62 313 4.3 10.4 0.00 0.00 0.00 27 1016.4
20260506212710 60 259 6.1 14.8 0.00 0.00 0.00 33 1016.7
20260506211710 60 299 4.3 10.4 0.00 0.00 0.00 36 1016.8
20260506210710 60 282 5.2 13.9 0.00 0.00 0.00 30 1017.2
20260506205711 59 324 11.3 17.4 0.00 0.00 0.00 34 1017.1
20260506204710 58 268 7.8 15.6 0.00 0.00 0.00 31 1017.5
20260506203711 59 285 7.8 11.3 0.00 0.00 0.00 36 1017.5
20260506201710 61 333 9.6 13.0 0.00 0.00 0.00 39 1017.7
20260506194711 58 228 8.7 14.8 0.00 0.00 0.00 32 1018.1
20260506193710 57 290 4.3 12.2 0.00 0.00 0.00 32 1018.1
20260506192710 58 281 7.8 13.9 0.00 0.00 0.00 34 1018.3
20260506191710 58 334 5.2 15.6 0.00 0.00 0.00 37 1018.1
20260506190711 60 315 7.8 20.0 0.00 0.00 0.00 37 1018.3
20260506185711 60 314 10.4 13.9 0.00 0.00 0.00 38 1018.4
20260506184710 58 333 7.8 13.9 0.00 0.00 0.00 34 1018.6
20260506183710 58 301 11.3 17.4 0.00 0.00 0.00 34 1018.7
20260506182710 58 12 7.8 17.4 0.00 0.00 0.00 35 1018.7
20260506181710 56 307 10.4 21.7 0.00 0.00 0.00 38 1018.8
20260506180710 58 304 5.2 15.6 0.00 0.00 0.00 35 1018.8
20260506173710 56 316 7.8 15.6 0.00 0.00 0.00 34 1019.2
20260506172711 56 309 10.4 14.8 0.00 0.00 0.00 36 1019.3
20260506171710 57 318 10.4 20.0 0.00 0.00 0.00 38 1019.4
20260506170710 58 335 10.4 18.2 0.00 0.00 0.00 38 1019.5
20260506165710 57 306 12.2 17.4 0.00 0.00 0.00 38 1019.6
20260506164711 55 309 7.0 14.8 0.00 0.00 0.00 43 1019.6
20260506163711 57 317 8.7 15.6 0.00 0.00 0.00 40 1019.6
20260506162711 54 330 8.7 14.8 0.00 0.00 0.00 38 1019.9
20260506161710 53 298 3.5 10.4 0.00 0.00 0.00 41 1019.9
20260506160711 54 306 8.7 13.9 0.00 0.00 0.00 36 1019.9
20260506155711 54 313 8.7 13.9 0.00 0.00 0.00 42 1019.7
20260506154711 54 296 8.7 13.0 0.00 0.00 0.00 40 1019.8
20260506153710 54 313 5.2 12.2 0.00 0.00 0.00 40 1019.8
20260506152710 52 297 5.2 13.0 0.00 0.00 0.00 43 1019.8
20260506151711 53 326 4.3 12.2 0.00 0.00 0.00 43 1019.6
20260506150711 53 329 6.1 10.4 0.00 0.00 0.00 47 1020.0
20260506145710 52 295 7.0 13.0 0.00 0.00 0.00 43 1019.9
20260506144711 51 269 4.3 10.4 0.00 0.00 0.00 43 1019.9
20260506142711 50 217 4.3 7.8 0.00 0.00 0.00 44 1019.9
20260506141711 49 227 4.3 6.1 0.00 0.00 0.00 45 1019.8
20260506140711 49 249 2.6 6.1 0.00 0.00 0.00 49 1019.9
20260506134711 47 228 1.7 2.6 0.00 0.00 0.00 50 1019.7
20260506133711 46 279 0.9 2.6 0.00 0.00 0.00 56 1019.5
20260506132710 44 284 1.7 2.6 0.00 0.00 0.00 57 1019.6
20260506131710 42 277 1.7 2.6 0.00 0.00 0.00 61 1019.4
20260506130710 41 311 2.6 4.3 0.00 0.00 0.00 65 1019.3
20260506125711 40 294 2.6 5.2 0.00 0.00 0.00 65 1019.4
20260506124710 39 303 1.7 4.3 0.00 0.00 0.00 68 1019.3
20260506123711 38 296 2.6 4.3 0.00 0.00 0.00 69 1019.2
20260506122710 37 287 2.6 4.3 0.00 0.00 0.00 71 1019.0
20260506115710 35 299 2.6 2.6 0.00 0.00 0.00 71 1018.9
20260506114711 35 291 1.7 2.6 0.00 0.00 0.00 71 1018.9
20260506113711 34 305 1.7 2.6 0.00 0.00 0.00 70 1018.5
20260506112710 34 294 1.7 2.6 0.00 0.00 0.00 69 1018.7
20260506111711 35 294 0.9 1.7 0.00 0.00 0.00 69 1018.3
20260506110710 35 294 0.9 1.7 0.00 0.00 0.00 70 1018.3
20260506105710 35 294 0.9 2.6 0.00 0.00 0.00 71 1018.2
20260506104711 35 294 0.9 1.7 0.00 0.00 0.00 70 1018.1
20260506103711 35 294 0.9 2.6 0.00 0.00 0.00 69 1017.9
20260506102711 35 294 1.7 2.6 0.00 0.00 0.00 69 1018.0
20260506101711 35 296 0.9 2.6 0.00 0.00 0.00 69 1018.0
20260506095710 35 292 1.7 2.6 0.00 0.00 0.00 70 1017.8
20260506093710 36 298 0.0 1.7 0.00 0.00 0.00 67 1017.7
20260506092710 36 297 0.0 1.7 0.00 0.00 0.00 67 1017.5
20260506091710 37 302 0.9 2.6 0.00 0.00 0.00 67 1017.5
20260506090712 37 331 0.9 2.6 0.00 0.00 0.00 67 1017.5
20260506085710 37 313 0.9 2.6 0.00 0.00 0.00 67 1017.5
20260506083710 38 293 0.9 1.7 0.00 0.00 0.00 66 1017.0
20260506082710 38 293 1.7 2.6 0.00 0.00 0.00 64 1017.0
20260506081710 39 312 0.9 0.9 0.00 0.00 0.00 63 1016.8
20260506080711 39 312 0.0 0.0 0.00 0.00 0.00 61 1016.8
20260506072710 41 312 0.9 1.7 0.00 0.00 0.00 60 1016.8
20260506070711 42 9 0.0 0.0 0.00 0.00 0.00 55 1016.6
20260506061710 44 9 0.9 1.7 0.00 0.00 0.00 50 1016.4